Find Starlink 36237

NORAD ID: 68337 Int'l Des: 2026-059 Owner: SPXS Country: US Constellation: starlink operational
LEOCIRCULAR

当前视图

正在加载3D地球...

About Starlink 36237

Starlink 36237 (NORAD 68337) is a starlink constellation satellite (v2 mini) launched Mar 22, 2026 by SPXS of US. It operates in LEO, CIRCULAR orbit with a mass of 575.00 kg.

关于 Starlink 36237

正在加载描述...

即将过境

Passes for default location (London). Set your location on the main map for personalized predictions.

高度历史

Loading altitude history...

两行轨道根数

1 68337U 26059S 26171.40808385 .00029062 00000-0 86775-3 0 9997
2 68337 53.1593 226.0617 0001044 91.1556 268.9566 15.34406936 13978
Epoch: Jun 20, 2026 • Age: 32 hours

当前状态

高度 468.1 km
速度 7.64 km/s
星下点 52.23°N, 153.53°E
发射日期 Mar 22, 2026
运行时间 0.2 years
类型 internet

技术详情

分类 Payload
质量 575.00 kg
干质量 530.00 kg
总质量 575.00 kg
长度 0.30 m
直径 4.10 m
跨度 29.00 m
形状 Box + pan
制造商 SPXS
平台类型 Starlink V2MO
阶段状态 In Orbit
所有者/国家 SPXS/US

Most Searched